Precipitable_Water
0.62 0.66 0.75 0.70 0.35 0.38 0.34 0.44 0.53 0.46 0.50 0.61 0.67 0.67 0.65 0.72 0.63 0.51 1.14 1.24 1.29 1.30 1.36 1.31 1.27 1.22 1.16 1.09 1.04 1.00 0.95 0.88 0.82 0.80 0.77 0.74 0.70 0.67 0.64 0.63 0.59 0.59 0.60 0.58 0.52 0.48 0.45 0.49 0.51
0.62 0.70 0.67 0.51 0.31 0.26 0.30 0.43 0.40 0.45 0.57 0.65 0.68 0.65 0.59 0.57 0.82 0.87 0.96 1.13 1.24 1.22 1.25 1.24 1.24 1.17 1.12 1.07 1.04 0.97 0.92 0.87 0.81 0.78 0.75 0.72 0.68 0.65 0.64 0.60 0.59 0.62 0.61 0.54 0.48 0.44 0.43 0.47 0.50
0.64 0.68 0.48 0.40 0.38 0.27 0.30 0.37 0.38 0.40 0.57 0.61 0.62 0.71 0.65 0.63 0.84 0.92 1.09 1.17 1.18 1.19 1.22 1.22 1.17 1.10 1.06 1.01 0.95 0.89 0.84 0.80 0.79 0.76 0.74 0.69 0.66 0.64 0.61 0.60 0.59 0.63 0.58 0.51 0.47 0.44 0.43 0.48 0.50
0.57 0.57 0.52 0.31 0.30 0.37 0.35 0.38 0.39 0.46 0.59 0.67 0.66 0.55 0.77 0.93 0.87 1.03 1.13 1.15 1.16 1.15 1.18 1.18 1.11 1.05 1.03 0.99 0.91 0.86 0.80 0.78 0.78 0.72 0.70 0.67 0.64 0.62 0.60 0.61 0.64 0.63 0.55 0.49 0.45 0.44 0.43 0.48 0.50
0.50 0.46 0.30 0.27 0.33 0.38 0.39 0.37 0.46 0.46 0.55 0.59 0.62 0.58 0.67 0.93 1.06 1.11 1.11 1.14 1.12 1.13 1.17 1.14 1.10 1.05 1.04 0.96 0.85 0.82 0.79 0.74 0.75 0.76 0.65 0.63 0.60 0.60 0.59 0.59 0.65 0.59 0.54 0.48 0.44 0.44 0.43 0.46 0.52
0.38 0.41 0.24 0.18 0.28 0.36 0.37 0.35 0.41 0.47 0.53 0.57 0.56 0.58 0.66 0.97 1.00 1.06 1.12 1.12 1.13 1.10 1.12 1.12 1.10 1.06 1.03 0.93 0.81 0.76 0.73 0.73 0.68 0.69 0.69 0.58 0.61 0.58 0.55 0.50 0.54 0.55 0.52 0.48 0.44 0.45 0.45 0.44 0.48
0.35 0.29 0.21 0.19 0.27 0.30 0.32 0.40 0.38 0.39 0.41 0.43 0.56 0.45 0.66 0.83 1.02 1.12 1.15 1.13 1.12 1.12 1.10 1.09 1.06 1.05 0.99 0.90 0.76 0.73 0.72 0.69 0.68 0.66 0.67 0.57 0.62 0.62 0.56 0.52 0.54 0.52 0.52 0.51 0.46 0.48 0.48 0.45 0.43
0.40 0.30 0.20 0.22 0.29 0.29 0.32 0.39 0.45 0.43 0.42 0.60 0.62 0.43 0.50 0.78 1.00 1.04 1.06 1.05 1.07 1.06 1.05 1.03 1.02 0.99 0.93 0.83 0.69 0.66 0.69 0.67 0.65 0.58 0.59 0.59 0.62 0.63 0.58 0.54 0.53 0.52 0.53 0.52 0.52 0.52 0.50 0.50 0.46
0.36 0.21 0.17 0.21 0.26 0.30 0.31 0.31 0.46 0.54 0.47 0.54 0.62 0.59 0.64 0.83 0.92 0.89 0.88 0.91 0.94 0.97 0.99 1.00 0.99 0.98 0.92 0.81 0.67 0.63 0.63 0.64 0.58 0.58 0.59 0.60 0.58 0.60 0.59 0.56 0.54 0.53 0.53 0.55 0.54 0.53 0.49 0.45 0.47
0.25 0.21 0.23 0.28 0.27 0.24 0.28 0.32 0.39 0.41 0.43 0.46 0.52 0.65 0.73 0.80 0.81 0.77 0.76 0.79 0.83 0.87 0.91 0.95 0.96 0.91 0.87 0.79 0.71 0.64 0.62 0.61 0.55 0.59 0.59 0.57 0.56 0.57 0.58 0.59 0.57 0.55 0.55 0.57 0.60 0.59 0.51 0.45 0.42
0.25 0.20 0.24 0.26 0.27 0.27 0.27 0.32 0.39 0.35 0.32 0.43 0.43 0.57 0.70 0.75 0.77 0.76 0.78 0.81 0.82 0.87 0.88 0.90 0.90 0.89 0.82 0.74 0.67 0.60 0.61 0.58 0.60 0.60 0.60 0.60 0.60 0.60 0.62 0.63 0.64 0.61 0.62 0.59 0.59 0.59 0.57 0.50 0.44
0.20 0.25 0.28 0.27 0.27 0.28 0.30 0.37 0.37 0.40 0.44 0.55 0.60 0.69 0.74 0.74 0.77 0.80 0.81 0.84 0.89 0.92 0.95 0.98 1.01 0.96 0.88 0.81 0.68 0.61 0.54 0.59 0.59 0.61 0.63 0.63 0.63 0.65 0.65 0.66 0.65 0.64 0.63 0.65 0.63 0.62 0.61 0.59 0.53
0.24 0.26 0.29 0.32 0.32 0.34 0.36 0.35 0.38 0.42 0.63 0.71 0.75 0.79 0.80 0.83 0.85 0.90 0.94 0.97 1.00 1.00 1.05 1.07 1.08 1.05 0.98 0.92 0.86 0.75 0.70 0.69 0.69 0.71 0.72 0.71 0.71 0.69 0.69 0.72 0.73 0.72 0.70 0.67 0.65 0.65 0.63 0.64 0.59
0.29 0.31 0.32 0.36 0.35 0.36 0.34 0.37 0.39 0.51 0.69 0.67 0.73 0.75 0.82 0.85 0.87 0.91 0.96 0.99 1.03 1.14 1.09 1.12 1.09 1.03 0.98 0.94 0.94 0.88 0.84 0.82 0.80 0.77 0.76 0.77 0.76 0.75 0.72 0.71 0.70 0.69 0.71 0.73 0.71 0.72 0.67 0.67 0.64
0.31 0.28 0.32 0.35 0.35 0.34 0.38 0.34 0.42 0.60 0.69 0.65 0.67 0.74 0.80 0.86 0.95 0.95 1.01 1.03 1.11 1.10 1.12 1.19 1.09 1.04 0.96 0.93 0.93 0.92 0.90 0.87 0.82 0.80 0.84 0.86 0.85 0.82 0.79 0.76 0.75 0.76 0.79 0.80 0.77 0.73 0.70 0.70 0.68
0.27 0.27 0.23 0.35 0.37 0.40 0.38 0.30 0.50 0.65 0.65 0.64 0.68 0.74 0.79 0.87 0.95 0.97 1.02 1.04 1.09 1.09 1.06 1.08 1.08 1.02 0.99 0.95 0.94 0.92 0.89 0.87 0.86 0.85 0.83 0.83 0.84 0.84 0.82 0.83 0.81 0.82 0.81 0.81 0.80 0.78 0.74 0.72 0.70
0.25 0.18 0.22 0.28 0.38 0.36 0.35 0.35 0.51 0.64 0.65 0.64 0.68 0.71 0.75 0.84 0.88 0.89 0.92 0.92 0.96 0.93 0.99 1.07 1.01 1.00 0.93 0.93 0.92 0.91 0.90 0.86 0.84 0.84 0.81 0.84 0.85 0.85 0.84 0.83 0.84 0.86 0.86 0.83 0.82 0.79 0.76 0.72 0.68
0.19 0.19 0.23 0.23 0.33 0.34 0.34 0.38 0.51 0.59 0.60 0.61 0.65 0.69 0.69 0.68 0.70 0.77 0.78 0.79 0.77 0.79 0.92 0.98 0.90 0.85 0.83 0.81 0.76 0.74 0.76 0.76 0.75 0.75 0.78 0.80 0.82 0.80 0.81 0.82 0.84 0.89 0.81 0.82 0.79 0.76 0.74 0.69 0.67
0.25 0.22 0.21 0.28 0.34 0.31 0.33 0.36 0.44 0.53 0.55 0.54 0.52 0.52 0.53 0.55 0.64 0.69 0.69 0.68 0.63 0.62 0.62 0.68 0.63 0.62 0.61 0.58 0.56 0.56 0.57 0.63 0.58 0.62 0.68 0.74 0.73 0.78 0.78 0.79 0.78 0.73 0.71 0.74 0.71 0.77 0.68 0.64 0.65
0.22 0.20 0.22 0.28 0.34 0.33 0.34 0.36 0.45 0.50 0.51 0.52 0.52 0.51 0.50 0.54 0.55 0.54 0.52 0.54 0.53 0.52 0.52 0.52 0.54 0.58 0.60 0.62 0.63 0.63 0.62 0.62 0.62 0.63 0.64 0.66 0.68 0.71 0.70 0.66 0.63 0.62 0.65 0.64 0.62 0.62 0.63 0.65 0.68
0.20 0.16 0.18 0.19 0.31 0.36 0.35 0.33 0.39 0.48 0.50 0.51 0.50 0.53 0.50 0.45 0.43 0.42 0.43 0.46 0.49 0.49 0.51 0.54 0.56 0.59 0.61 0.64 0.65 0.65 0.62 0.59 0.55 0.52 0.51 0.50 0.53 0.59 0.69 0.78 0.78 0.78 0.74 0.67 0.61 0.55 0.52 0.51 0.58
0.10 0.19 0.21 0.22 0.21 0.19 0.37 0.20 0.34 0.40 0.42 0.45 0.48 0.46 0.40 0.42 0.44 0.43 0.44 0.45 0.48 0.48 0.50 0.52 0.55 0.56 0.59 0.62 0.59 0.52 0.48 0.45 0.48 0.50 0.51 0.50 0.52 0.52 0.56 0.61 0.66 0.69 0.70 0.69 0.66 0.65 0.60 0.53 0.46
0.15 0.25 0.25 0.26 0.23 0.26 0.29 0.23 0.29 0.40 0.38 0.42 0.42 0.43 0.41 0.37 0.37 0.36 0.37 0.42 0.44 0.45 0.47 0.50 0.49 0.48 0.48 0.48 0.46 0.44 0.43 0.44 0.44 0.43 0.42 0.45 0.48 0.53 0.55 0.55 0.58 0.59 0.60 0.61 0.60 0.61 0.61 0.60 0.52
0.30 0.26 0.26 0.27 0.25 0.18 0.27 0.25 0.26 0.34 0.39 0.41 0.43 0.40 0.35 0.32 0.33 0.36 0.39 0.42 0.44 0.48 0.44 0.39 0.38 0.37 0.39 0.40 0.41 0.41 0.39 0.38 0.37 0.38 0.39 0.46 0.50 0.50 0.51 0.54 0.58 0.58 0.58 0.58 0.58 0.60 0.59 0.59 0.59
0.27 0.21 0.14 0.14 0.16 0.16 0.32 0.27 0.31 0.41 0.42 0.41 0.34 0.32 0.30 0.35 0.36 0.37 0.40 0.42 0.42 0.36 0.34 0.35 0.36 0.36 0.39 0.41 0.42 0.41 0.41 0.42 0.43 0.43 0.43 0.43 0.41 0.40 0.41 0.43 0.42 0.44 0.47 0.50 0.56 0.58 0.57 0.57 0.57
0.25 0.22 0.14 0.10 0.12 0.18 0.33 0.22 0.29 0.44 0.46 0.37 0.31 0.30 0.34 0.34 0.37 0.40 0.38 0.34 0.32 0.32 0.33 0.34 0.35 0.36 0.41 0.48 0.48 0.47 0.44 0.45 0.44 0.42 0.42 0.43 0.43 0.42 0.42 0.42 0.43 0.44 0.44 0.45 0.46 0.46 0.49 0.54 0.56
0.25 0.20 0.29 0.20 0.24 0.20 0.25 0.30 0.38 0.42 0.32 0.24 0.29 0.31 0.31 0.32 0.32 0.31 0.30 0.29 0.30 0.32 0.34 0.36 0.37 0.42 0.53 0.51 0.44 0.43 0.44 0.45 0.44 0.41 0.40 0.38 0.39 0.38 0.38 0.39 0.40 0.42 0.44 0.45 0.46 0.45 0.44 0.44 0.48
0.29 0.33 0.20 0.22 0.13 0.12 0.20 0.23 0.24 0.28 0.19 0.25 0.28 0.30 0.31 0.30 0.28 0.26 0.27 0.29 0.31 0.34 0.36 0.42 0.45 0.50 0.47 0.43 0.42 0.43 0.46 0.44 0.41 0.38 0.37 0.39 0.41 0.42 0.42 0.41 0.41 0.42 0.42 0.41 0.41 0.41 0.42 0.43 0.44
0.24 0.23 0.27 0.27 0.22 0.15 0.15 0.19 0.33 0.22 0.24 0.29 0.30 0.32 0.34 0.28 0.25 0.27 0.28 0.31 0.32 0.35 0.36 0.39 0.49 0.52 0.49 0.48 0.48 0.46 0.43 0.43 0.43 0.41 0.41 0.43 0.43 0.42 0.42 0.44 0.44 0.44 0.42 0.41 0.40 0.39 0.39 0.38 0.39
0.32 0.27 0.28 0.20 0.19 0.22 0.20 0.18 0.26 0.27 0.32 0.31 0.32 0.36 0.34 0.27 0.28 0.29 0.31 0.32 0.35 0.35 0.38 0.47 0.58 0.52 0.54 0.56 0.49 0.41 0.39 0.40 0.41 0.41 0.43 0.45 0.43 0.44 0.44 0.45 0.45 0.45 0.44 0.43 0.41 0.38 0.38 0.36 0.35
Wind_Speed
10 10 11 11 9 8 11 11 11 14 10 12 10 8 9 9 10 11 10 10 10 10 11 11 11 10 10 10 9 9 9 9 9 9 9 9 9 9 9 10 10 10 10 10 11 11 10 10 10
10 11 11 11 9 9 12 13 14 14 11 10 7 9 8 7 9 7 6 5 7 9 10 11 11 10 11 10 10 10 10 10 10 10 10 10 10 10 10 10 10 10 11 11 11 12 11 11 11
11 12 11 10 8 9 11 13 17 15 11 9 8 8 8 9 7 6 6 5 6 7 9 10 11 11 11 11 11 11 11 11 11 11 11 11 11 11 11 11 11 11 11 12 12 12 12 12 11
12 12 11 9 10 11 10 13 13 7 6 7 7 7 7 8 8 8 6 6 6 7 9 10 11 12 12 12 12 12 13 13 13 13 12 13 12 12 12 12 11 11 11 12 12 13 13 12 12
12 11 9 9 10 11 10 10 9 6 6 7 9 8 8 10 8 8 8 8 9 9 10 10 11 12 13 14 14 14 15 14 14 14 14 14 13 13 13 13 12 12 12 12 13 13 13 12 13
10 9 8 10 11 12 11 10 7 6 6 7 7 8 10 10 9 9 9 10 11 11 12 13 14 15 15 16 16 16 16 16 16 16 15 15 15 14 14 13 13 13 13 13 13 13 13 13 13
7 8 9 10 11 11 10 10 8 8 8 9 9 10 11 11 11 10 10 11 12 12 13 14 15 16 16 17 17 18 18 17 17 17 17 16 15 14 14 14 14 14 13 13 13 13 13 13 13
7 7 8 10 10 11 11 10 10 10 11 10 13 12 14 13 10 10 10 12 13 14 15 16 17 17 18 18 19 19 18 18 18 18 17 16 16 16 15 15 15 15 14 14 14 14 14 14 14
8 8 9 10 9 12 12 12 12 12 11 12 15 13 11 8 8 9 10 12 14 15 16 16 16 17 18 19 19 19 19 19 19 18 18 18 18 18 17 17 17 16 16 16 15 16 16 16 16
7 7 9 10 11 14 15 13 12 12 12 13 12 10 7 6 7 8 10 12 14 15 15 16 16 16 16 17 19 20 20 20 20 20 20 20 20 20 20 19 19 18 18 18 18 18 18 18 18
8 9 10 14 16 16 13 11 12 13 13 14 12 9 7 7 9 10 12 14 14 14 14 16 16 16 16 17 17 18 20 21 21 21 22 22 22 22 22 22 21 21 21 21 21 20 20 20 20
9 11 12 13 12 10 10 10 9 12 15 14 8 9 9 10 11 12 14 15 15 15 16 16 16 16 16 17 18 19 20 21 22 23 23 24 24 24 24 24 24 24 24 24 24 23 23 22 22
9 11 11 11 8 8 7 10 9 14 11 8 8 9 10 12 14 16 17 17 18 18 17 16 15 15 15 16 18 19 19 21 22 23 24 25 26 26 27 27 27 27 27 27 27 27 26 25 24
9 8 9 8 8 8 6 10 10 14 12 11 11 12 14 15 17 18 19 20 19 19 19 17 16 16 17 19 19 19 20 22 23 24 25 26 27 27 28 29 29 29 29 30 29 28 27 27 26
7 5 7 10 11 8 11 12 14 15 12 12 14 15 16 18 18 19 21 21 22 19 19 14 16 16 18 18 20 21 22 22 23 24 25 27 28 28 28 29 28 28 28 29 29 29 28 27 26
6 7 8 10 11 11 9 14 15 15 13 14 16 16 18 18 19 19 20 22 21 20 21 21 19 18 18 19 20 20 21 22 24 25 27 28 30 31 31 32 32 32 32 32 31 30 29 27 26
7 6 7 9 12 11 11 12 15 15 14 14 16 17 17 15 17 19 19 19 18 20 20 15 17 18 20 21 23 24 25 26 28 28 29 30 32 33 34 36 36 36 36 35 34 32 31 30 29
7 5 7 8 11 9 8 10 14 15 14 13 14 16 16 18 18 18 17 16 18 16 13 16 17 20 22 24 24 26 27 29 31 33 35 35 36 37 37 37 37 37 37 37 36 36 34 34 33
4 4 1 7 8 10 10 9 12 12 13 13 13 13 13 14 16 16 16 15 16 14 14 17 20 21 23 24 26 28 30 30 31 31 31 33 35 36 37 37 38 38 37 36 35 35 36 36 35
2 1 6 8 9 8 9 9 10 11 10 11 13 14 15 15 14 16 16 16 18 19 19 20 21 22 24 26 29 31 30 31 33 34 35 37 38 39 40 40 39 39 38 37 37 38 37 37 35
6 6 7 7 7 7 7 9 10 10 11 12 13 13 14 14 16 18 19 20 20 21 21 22 24 26 28 30 31 31 32 33 34 35 36 37 38 39 39 40 41 41 41 41 41 40 40 39 38
6 6 5 3 7 8 9 9 9 10 11 11 13 14 15 17 19 21 20 20 20 21 22 23 25 26 28 30 31 32 33 34 35 36 37 38 39 39 40 41 41 42 42 42 42 42 42 41 40
7 6 5 6 6 5 10 7 9 10 11 12 13 15 17 19 20 19 19 19 21 22 23 23 25 27 29 30 32 33 35 36 37 38 39 39 39 39 40 41 41 41 41 41 42 41 40 41 41
5 5 5 6 7 8 9 7 10 10 12 13 14 17 19 20 17 18 20 21 22 23 24 25 27 29 30 31 33 35 36 38 39 39 39 39 39 39 40 42 44 45 44 44 42 40 40 41 41
5 4 7 8 8 9 8 7 9 11 12 13 15 17 19 17 19 20 21 22 23 25 27 28 29 30 31 33 35 36 37 38 39 39 40 41 41 41 41 42 41 42 43 44 45 44 44 42 41
6 7 6 7 7 8 8 7 8 10 13 14 16 17 16 18 20 20 22 24 26 28 28 30 31 32 34 36 36 37 38 38 39 40 42 42 40 38 37 37 38 39 41 43 43 42 41 40 39
8 7 7 5 8 7 8 10 10 10 12 14 15 15 17 18 20 22 24 25 27 28 29 31 33 34 35 36 37 38 38 38 38 39 38 36 35 35 34 33 34 35 38 40 42 44 44 42 41
7 6 6 7 5 7 8 8 8 10 12 13 15 16 17 19 22 23 25 26 28 28 30 33 34 33 34 37 39 38 38 37 36 36 36 36 36 36 36 35 35 35 35 36 37 39 41 41 41
9 8 7 5 5 5 5 9 8 9 10 12 14 16 18 21 22 23 26 27 28 29 31 34 34 34 36 39 39 38 37 36 38 38 37 37 37 36 36 35 35 35 34 33 34 35 36 37 39
9 9 8 6 8 7 6 9 7 8 10 10 13 16 19 21 23 25 26 27 28 30 33 34 33 36 39 39 39 38 37 38 39 39 39 38 37 36 35 35 34 32 31 31 31 33 34 36 35
Wind_Direction
289 297 300 302 299 294 285 279 283 294 286 295 283 283 284 294 294 290 284 272 232 231 228 229 233 237 242 247 254 258 262 267 272 275 279 281 286 289 290 293 295 295 296 297 296 295 292 287 283
290 296 301 298 296 292 286 285 286 285 273 280 279 286 301 295 301 296 292 257 234 230 224 229 234 240 244 248 253 259 262 266 270 274 277 280 284 287 290 291 292 294 295 295 295 295 292 287 283
290 296 297 296 288 283 278 290 294 286 264 272 277 294 294 297 299 293 282 251 236 234 235 241 243 246 249 253 256 258 262 265 271 273 277 279 281 285 288 290 291 292 294 294 294 294 292 286 281
290 295 296 291 280 288 285 301 305 303 263 277 274 294 296 302 287 288 265 247 245 248 248 248 248 252 253 255 258 261 264 266 269 271 275 276 278 283 284 287 288 292 294 295 294 292 289 283 278
289 289 290 287 281 287 294 300 316 301 285 289 281 279 291 295 288 277 267 254 258 259 258 256 257 258 258 259 262 263 264 266 267 268 272 273 275 279 281 283 284 287 291 293 295 293 288 282 276
285 283 289 284 276 289 294 302 310 315 300 291 298 294 295 291 289 280 269 263 263 264 263 263 265 264 264 265 266 266 266 267 267 269 269 270 272 275 279 279 280 284 287 289 291 292 290 282 276
275 284 274 279 272 288 292 297 300 296 299 307 297 301 294 288 283 277 272 269 269 270 271 270 270 268 267 268 267 266 267 267 266 267 266 266 267 272 275 276 278 280 285 286 287 289 289 284 277
276 283 280 278 272 276 293 291 286 297 298 298 304 295 291 279 274 277 276 278 278 276 275 275 273 269 269 269 269 267 267 266 265 264 263 262 264 267 272 274 276 277 279 282 283 284 287 283 280
276 287 280 276 268 274 289 286 289 294 294 300 307 300 298 271 274 279 282 285 283 281 280 278 276 273 272 270 269 266 266 264 264 262 261 261 263 265 268 271 274 275 276 278 280 282 284 282 280
278 279 272 273 276 281 288 284 284 292 297 301 308 312 296 276 277 283 286 289 287 283 281 280 279 277 275 274 271 267 266 263 262 261 261 261 263 265 267 269 271 273 274 275 278 280 281 281 280
276 269 278 285 281 289 284 283 288 292 298 292 286 284 272 270 280 289 293 291 287 285 284 283 280 277 278 278 273 271 267 264 263 262 262 263 264 265 266 268 269 271 273 274 275 277 279 279 278
279 276 283 292 297 294 291 288 297 313 298 295 276 278 276 270 275 286 294 295 295 287 286 284 280 277 279 277 275 275 271 268 266 264 264 264 265 266 266 267 269 271 272 273 273 274 277 277 276
280 288 301 303 304 303 314 317 299 325 314 311 298 294 284 281 285 293 297 297 295 287 283 281 279 279 280 283 281 279 275 272 269 267 266 265 266 267 267 267 269 270 271 271 272 273 274 274 273
286 300 298 313 314 311 306 321 297 316 310 315 309 305 298 292 294 294 296 297 292 283 284 278 278 281 283 282 281 279 280 277 274 271 269 268 268 268 268 268 268 269 270 271 272 271 272 271 270
277 292 327 324 310 305 294 324 319 309 308 314 311 308 307 304 299 299 297 294 287 288 286 271 279 281 288 284 283 282 280 280 277 275 271 270 269 269 268 268 268 269 270 271 271 270 269 268 266
276 292 296 314 313 309 306 308 311 312 310 311 310 309 310 308 305 307 307 305 298 288 284 276 274 282 289 286 288 286 284 282 281 278 275 272 271 270 269 268 268 269 269 270 270 267 267 265 263
299 286 309 309 320 302 307 304 313 315 316 315 314 312 314 316 317 317 313 312 307 301 285 267 276 282 288 287 288 284 284 284 284 280 278 275 273 273 271 270 270 268 268 268 268 265 264 261 263
267 276 308 309 321 350 335 312 314 318 319 319 319 317 316 313 314 314 314 313 316 311 298 273 290 290 292 290 290 288 287 286 286 283 278 275 275 273 272 271 270 267 268 266 267 262 261 262 262
275 293 304 297 301 330 322 319 319 319 321 327 328 326 322 318 320 319 313 314 319 315 305 293 292 294 294 293 293 293 292 290 289 288 285 280 277 274 272 271 269 267 267 265 266 261 261 260 260
260 231 303 314 318 322 316 330 322 327 323 327 328 326 322 321 321 322 320 312 311 310 304 299 296 296 295 294 296 295 293 291 291 289 286 284 281 277 274 271 269 267 265 264 262 260 260 257 257
282 284 282 299 320 329 311 325 325 319 324 322 321 323 326 324 320 320 318 315 314 310 304 300 298 298 298 297 297 296 295 294 293 291 289 287 284 280 275 272 270 267 265 264 263 261 258 257 255
290 293 298 286 315 313 312 311 320 319 322 325 325 325 324 324 322 320 320 319 318 317 316 308 304 303 303 302 301 299 298 296 295 294 291 288 285 281 278 274 271 268 266 265 263 261 258 255 254
283 290 285 308 324 322 334 330 308 324 324 325 325 326 327 324 323 325 326 326 325 323 320 318 314 311 308 306 304 302 300 299 297 296 294 291 287 284 279 275 271 268 266 265 263 260 257 255 253
271 300 320 315 316 323 319 321 312 318 316 319 324 325 324 326 328 329 327 327 327 327 324 321 318 314 312 311 308 305 303 301 300 298 295 293 290 286 282 277 273 269 266 263 261 259 256 254 253
281 292 309 311 317 301 310 323 297 311 321 322 322 324 326 330 330 329 328 329 329 328 325 323 321 319 317 315 312 309 306 304 302 300 298 295 292 288 285 279 274 270 267 264 261 257 256 254 250
273 273 282 278 289 299 303 310 306 310 314 320 323 326 332 331 332 332 332 330 329 328 326 326 323 321 320 318 315 312 309 307 304 302 300 297 293 291 288 283 278 273 268 263 259 255 252 250 247
271 288 280 299 308 307 303 306 313 318 322 326 329 336 334 335 337 335 333 332 331 330 329 329 326 323 322 321 319 316 313 310 308 306 304 300 296 294 291 287 282 278 271 264 258 254 251 247 244
272 264 290 301 297 298 308 302 295 315 318 325 333 336 338 337 336 335 335 334 334 333 333 333 332 329 327 326 323 320 317 314 313 311 307 302 297 293 290 287 284 280 273 267 259 253 247 243 240
278 273 296 284 291 285 299 299 294 305 319 328 334 338 338 338 337 337 337 336 336 337 337 336 335 334 332 329 327 324 321 318 315 312 308 304 299 294 290 286 285 281 273 266 258 250 244 239 236
273 265 264 275 277 295 298 300 302 307 324 337 339 340 342 342 341 341 341 341 341 340 338 337 338 337 335 334 332 329 326 323 318 314 310 306 302 297 292 288 286 280 272 265 256 247 241 234 232